SCP
0 0 0 0 0 0 0 0 0 0 0 0 0 0 0 0 0 0 0 0 0 0 0 1 1 1 1 1 1 1 1 1 1 1 1 1 0 0 0 0 0 0 0 0
0 0 0 0 0 0 0 0 0 0 0 0 0 0 0 0 0 0 0 0 0 0 0 1 1 1 1 1 1 1 1 1 1 1 1 1 0 0 0 0 0 0 0 0
0 0 0 0 0 0 0 0 0 0 0 0 0 0 0 0 0 0 0 0 0 0 0 0 0 0 1 1 1 1 1 1 1 1 1 0 0 0 0 0 0 0 0 0
0 0 0 0 0 0 0 0 0 0 0 0 0 0 0 0 0 0 0 0 0 0 0 0 0 0 0 1 1 1 1 1 1 1 1 0 0 0 0 0 0 0 0 0
0 0 0 0 0 0 0 0 0 0 0 0 0 0 0 0 0 0 0 0 0 0 0 0 0 0 0 0 1 1 1 0 0 1 1 0 0 0 0 0 0 0 0 0
0 0 0 0 0 0 0 0 0 0 0 0 0 0 0 0 0 0 0 0 0 0 0 0 0 0 0 0 1 1 1 1 0 0 0 0 0 0 0 0 0 0 0 0
0 0 0 0 0 0 0 0 0 0 0 0 0 0 0 0 0 0 0 0 0 0 0 0 0 0 0 0 0 1 1 1 1 0 0 0 0 0 0 0 0 0 0 0
0 0 0 0 0 0 0 0 0 0 0 0 0 0 0 0 0 0 0 0 0 0 0 0 0 0 0 0 0 1 1 1 1 0 0 0 0 0 0 0 0 0 0 0
0 0 0 0 0 0 0 0 0 0 0 0 0 0 0 0 0 0 0 0 0 0 0 0 0 0 0 0 0 0 1 1 1 0 0 0 0 0 0 0 0 0 0 0
0 0 0 0 0 0 0 0 0 0 0 0 0 0 0 0 0 0 0 0 0 0 0 0 0 0 0 0 0 0 0 0 0 0 0 0 0 0 0 0 0 0 0 0
0 0 0 0 0 0 0 0 0 0 0 0 0 0 0 0 0 0 0 0 0 0 0 0 0 0 0 0 0 0 0 0 0 0 0 0 0 0 0 0 0 0 0 0
0 0 0 0 0 0 0 0 0 0 0 0 0 0 0 0 0 0 0 0 0 0 0 0 0 0 0 0 0 0 0 0 0 0 0 0 0 0 0 0 0 0 0 0
0 0 0 0 0 0 0 0 0 0 0 0 0 0 0 0 0 0 0 0 0 0 0 0 0 0 0 0 0 0 0 0 0 0 0 0 0 0 0 0 0 0 0 0
0 0 0 0 0 0 0 0 0 0 0 0 0 0 0 0 0 0 0 0 0 0 0 0 0 0 0 0 0 0 0 0 0 0 0 0 0 0 0 0 0 0 0 0
0 0 0 0 0 0 0 0 0 0 0 0 0 0 0 0 0 0 0 0 0 0 0 0 0 0 0 0 0 0 0 0 0 0 0 0 0 0 0 0 0 0 0 0
0 0 0 0 0 0 0 0 0 0 0 0 0 0 0 0 0 0 0 0 0 0 0 0 0 0 0 0 0 0 0 0 0 0 0 0 0 0 0 0 0 0 0 0
0 0 0 0 0 0 0 0 0 0 0 0 0 0 0 0 0 0 0 0 0 0 0 0 0 0 0 0 0 0 0 0 0 0 0 0 0 0 0 0 0 0 0 0
0 0 0 0 0 0 0 0 0 0 0 0 0 0 0 0 0 0 0 0 0 0 0 0 0 0 0 0 0 0 0 0 0 0 0 0 0 0 0 0 0 0 0 0
0 0 0 0 0 0 0 0 0 0 0 0 0 0 0 0 0 0 0 0 0 0 0 0 0 0 0 0 0 0 0 0 0 0 0 0 0 0 0 0 0 0 0 0
0 0 0 0 0 0 0 0 0 0 0 0 0 0 0 0 0 0 0 0 0 0 0 0 0 0 0 0 0 0 0 0 0 0 0 0 0 0 0 0 0 0 0 0
0 0 0 0 0 0 0 0 0 0 0 0 0 0 0 0 0 0 0 0 0 0 0 0 0 0 0 0 0 0 0 0 0 0 0 0 0 0 0 0 0 0 0 0
0 0 0 0 0 0 0 0 0 0 0 0 0 0 0 0 0 0 0 0 0 0 0 0 0 0 0 0 0 0 0 0 0 0 0 0 0 0 0 0 0 0 0 0
0 0 0 0 0 0 0 0 0 0 0 0 0 0 0 0 0 0 0 0 0 0 0 0 0 0 0 0 0 0 0 0 0 0 0 0 0 0 0 0 0 0 0 0
0 0 0 0 0 0 0 0 0 0 0 0 0 0 0 0 0 0 0 0 0 0 0 0 0 0 0 0 0 0 0 0 0 0 0 0 0 0 0 0 0 0 0 0
0 0 0 0 0 0 0 0 0 0 0 0 0 0 0 0 0 0 0 0 0 0 0 0 0 0 0 0 0 0 0 0 0 0 0 0 0 0 0 0 0 0 0 0
0 0 0 0 0 0 0 0 0 0 0 0 0 0 0 0 0 0 0 0 0 0 0 0 0 0 0 0 0 0 0 0 0 0 0 0 0 0 0 0 0 0 0 0
Wind_Speed
4 3 5 6 7 8 7 8 9 6 2 4 8 9 8 6 6 6 5 4 4 3 2 2 3 3 2 2 2 2 2 1 1 1 1 1 1 2 2 2 3 3 3 3
3 6 6 5 5 6 7 8 9 6 3 5 7 10 9 7 8 7 6 5 3 2 1 2 2 2 2 2 2 2 2 2 1 1 1 1 2 2 2 2 2 3 3 2
6 2 2 5 5 6 7 8 7 7 6 6 6 9 9 7 7 6 5 4 3 3 2 2 2 2 2 2 1 1 2 1 1 1 2 2 2 2 1 1 2 2 2 2
5 4 3 4 5 5 7 4 6 6 5 5 4 7 6 6 6 6 5 4 3 3 3 3 2 2 2 1 1 1 2 2 1 2 2 3 2 1 1 1 1 2 2 2
4 2 3 5 5 5 4 4 5 7 6 7 6 6 7 4 6 7 5 4 3 3 3 3 2 2 2 1 1 2 2 2 1 2 2 2 2 1 1 2 2 2 2 2
6 3 2 3 2 3 2 3 5 4 3 7 8 7 7 4 6 4 4 4 4 3 3 3 3 2 2 2 2 2 2 2 1 1 2 2 3 2 2 2 1 1 1 1
5 5 4 2 2 2 2 0 1 2 4 7 4 6 7 2 1 3 4 4 4 4 4 4 3 2 1 1 1 2 2 2 2 2 1 1 2 3 3 2 1 1 1 0
4 5 6 4 4 4 5 4 4 4 4 4 3 7 5 1 1 2 2 4 4 4 3 4 3 3 2 2 2 2 2 1 1 2 2 2 1 1 1 1 1 1 1 1
4 3 1 2 3 3 4 5 3 3 3 4 6 5 3 2 2 1 1 3 3 3 3 3 3 3 2 2 2 2 2 1 1 2 2 2 2 2 1 1 1 1 0 0
2 4 2 2 2 5 4 2 2 3 4 6 6 6 5 3 3 2 2 2 2 3 3 3 3 2 2 2 2 2 2 2 1 2 1 2 2 2 2 2 1 1 1 1
3 3 3 2 6 6 5 4 5 4 4 4 5 5 0 3 2 2 1 2 3 3 3 2 2 2 2 2 2 2 2 2 2 2 2 2 1 2 2 1 1 1 0 0
3 3 5 6 5 5 6 7 7 5 6 5 5 7 1 2 2 2 1 1 2 2 2 2 2 2 2 2 2 2 2 2 2 2 2 1 1 1 1 1 1 1 1 0
3 3 3 4 3 3 5 6 7 6 4 6 7 8 0 1 1 1 1 1 1 2 1 1 2 2 2 2 2 2 2 2 2 2 2 1 1 1 1 1 1 1 1 1
3 4 8 9 5 3 6 7 7 7 7 9 12 12 9 5 2 1 1 2 1 2 1 1 1 1 1 1 2 2 2 2 2 2 2 1 1 0 0 0 1 1 1 1
3 6 8 11 11 9 10 10 11 13 13 12 13 14 12 6 4 3 2 2 2 2 1 1 2 2 2 1 1 1 1 1 2 2 1 1 1 0 0 0 1 1 1 2
5 5 5 10 10 10 12 13 14 15 14 15 16 17 9 5 3 3 3 3 4 3 2 1 1 2 2 2 1 1 1 2 2 2 2 1 1 0 0 1 1 1 2 2
5 5 5 8 7 6 13 14 16 13 12 12 16 14 5 4 3 3 2 2 3 3 2 2 2 2 2 2 2 2 2 2 2 1 1 1 1 1 0 1 1 2 2 2
7 7 5 5 4 13 10 5 9 12 12 10 9 7 4 3 3 2 1 2 2 2 2 2 2 2 1 1 1 1 2 2 1 1 1 1 1 1 1 1 2 2 2 2
8 8 6 5 8 12 7 4 4 6 9 6 7 6 4 2 1 2 1 1 1 2 2 1 1 1 1 1 1 1 1 1 1 1 1 1 1 1 1 2 2 2 2 2
6 7 7 7 8 10 6 2 1 2 8 5 4 4 3 1 3 4 2 2 2 2 1 1 1 0 1 1 1 2 1 1 2 2 2 1 1 2 2 2 2 2 2 3
5 7 11 11 10 9 3 2 2 5 7 1 3 4 3 3 4 2 2 2 1 2 2 2 1 0 0 1 2 2 1 2 2 1 1 1 1 2 2 2 2 2 2 2
7 6 7 7 9 10 2 3 6 5 0 1 1 1 1 2 1 2 2 1 1 2 2 2 1 1 1 1 2 2 2 1 0 1 1 2 2 2 2 2 2 2 2 2
7 7 5 7 7 2 3 3 2 0 0 1 0 1 1 1 2 2 2 2 1 1 2 2 1 2 1 0 1 2 2 1 0 1 2 2 2 2 2 2 2 2 2 2
4 2 3 4 5 3 2 2 1 0 1 0 1 0 0 2 2 3 2 2 2 2 1 1 1 2 2 1 1 2 1 0 1 2 2 2 2 3 2 2 2 2 3 3
5 4 4 7 5 3 4 3 2 1 0 0 1 1 1 2 3 3 2 2 2 2 1 1 2 3 3 2 2 2 1 1 2 2 3 3 3 3 2 2 3 3 4 4
5 6 7 8 5 4 4 2 2 1 1 1 1 2 2 2 3 3 3 2 2 2 2 2 2 3 3 2 2 2 2 2 2 3 3 2 2 2 2 2 2 5 5 7
Wind_Direction
200 216 225 232 232 261 286 284 283 288 306 272 257 264 260 245 251 246 231 216 211 201 168 125 111 98 95 90 92 99 100 84 94 112 120 116 103 88 75 65 58 68 63 57
210 235 250 271 268 259 266 274 279 287 301 290 276 271 264 241 233 238 231 218 206 188 147 85 81 96 103 104 102 113 118 125 123 132 149 133 120 105 97 86 73 66 65 63
229 255 279 257 262 265 264 259 268 282 300 268 277 276 248 234 218 220 221 206 195 167 155 127 101 76 65 67 71 97 117 123 115 119 124 112 100 91 89 73 81 65 65 60
251 251 264 261 259 261 266 275 280 280 279 267 238 281 256 228 212 208 204 187 175 151 147 134 120 95 77 59 55 75 86 90 94 102 115 123 134 139 136 122 111 92 79 69
246 236 251 252 262 261 269 316 291 270 262 271 245 258 269 223 225 214 199 182 165 140 134 132 124 113 94 81 76 80 76 72 86 104 122 136 124 115 107 106 113 104 92 77
254 270 270 271 289 252 259 295 282 264 244 254 228 225 267 224 228 203 185 165 149 139 135 128 119 106 84 74 74 82 94 72 61 106 125 127 121 116 115 107 118 121 115 95
247 226 214 227 261 239 226 207 288 257 227 244 212 221 246 228 210 176 171 166 150 144 139 133 128 122 117 101 96 89 92 77 62 70 105 132 138 138 147 149 154 140 136 93
242 247 193 196 214 216 216 210 210 235 247 271 243 235 240 174 92 87 124 151 147 146 134 132 136 143 146 131 130 116 98 86 74 79 73 63 97 133 142 137 140 158 181 203
251 254 137 199 235 227 209 223 247 276 291 279 249 242 248 194 187 142 123 130 148 149 135 130 131 132 136 132 145 137 123 93 86 83 80 70 62 77 87 107 102 89 51 346
289 275 253 189 220 246 248 228 178 207 240 256 260 237 230 193 209 185 162 139 131 136 138 131 127 123 125 134 132 127 122 104 81 76 80 75 74 78 70 70 84 88 54 32
242 237 247 207 209 212 199 217 218 222 230 239 268 259 121 154 160 155 160 149 156 150 149 142 122 116 113 117 126 133 128 114 99 86 73 65 65 75 75 75 55 60 86 119
207 231 248 234 229 240 222 214 202 211 234 232 258 266 47 70 106 122 150 165 145 144 149 153 144 132 128 134 136 141 139 135 129 112 97 87 59 63 70 57 31 20 5 324
175 198 265 280 250 228 237 231 224 231 245 238 242 261 142 76 102 124 164 176 154 162 156 147 146 154 160 166 168 158 148 151 142 131 131 123 96 76 54 25 11 1 334 322
208 214 220 234 250 221 236 237 228 221 233 246 245 260 268 271 274 235 202 219 219 194 176 169 173 174 174 184 185 168 161 153 147 141 144 150 162 190 237 344 352 330 308 298
200 234 242 257 270 269 256 247 232 229 234 242 255 259 265 256 252 242 225 236 241 239 221 194 196 192 185 191 187 166 164 154 148 145 159 179 179 178 16 348 322 318 304 294
205 232 243 260 259 262 264 254 246 243 242 248 259 263 265 266 261 260 245 237 245 242 232 247 222 197 203 206 204 189 179 161 152 167 193 188 159 150 280 307 310 315 307 302
200 212 231 256 262 275 255 235 232 236 236 235 247 256 260 267 262 251 246 247 256 259 251 250 243 237 220 210 207 204 186 151 150 180 190 178 176 201 256 297 308 298 290 292
214 220 233 250 242 244 246 211 217 233 246 241 245 258 256 247 268 272 231 224 261 273 266 260 260 258 236 192 180 159 137 146 167 184 201 201 187 227 273 274 275 286 294 287
220 215 227 224 241 260 258 229 203 224 256 237 230 251 270 274 299 275 264 244 252 271 275 265 266 254 232 175 156 137 137 156 183 207 229 232 214 232 250 255 264 281 289 290
221 217 226 230 240 248 249 222 221 207 258 244 211 226 248 283 261 263 352 10 353 359 358 339 317 331 165 168 137 145 172 191 218 229 235 242 231 228 242 256 272 286 286 285
201 213 223 234 245 255 252 209 134 205 249 237 185 205 216 235 246 273 354 358 3 2 1 4 360 344 229 146 134 167 204 226 241 261 268 262 246 240 246 260 274 278 284 287
201 206 216 220 235 249 177 155 190 220 57 102 162 177 201 244 292 343 351 338 345 347 358 7 2 327 321 131 157 206 239 260 294 260 259 263 263 257 245 245 267 268 261 265
212 208 209 211 225 247 159 186 209 99 97 2 62 128 171 233 268 294 301 299 306 321 339 347 336 313 315 207 187 225 265 290 252 252 257 268 272 264 249 234 243 254 249 252
239 240 232 251 256 257 236 238 261 320 185 57 49 14 218 236 260 276 280 287 295 304 310 331 320 291 285 278 265 258 284 290 230 244 257 260 261 263 246 239 236 240 242 247
230 213 237 255 261 278 261 240 223 230 207 215 316 296 265 247 263 269 269 270 273 286 295 278 253 258 264 271 278 279 249 210 239 250 257 259 255 253 249 243 237 249 241 242
216 209 217 243 238 231 247 210 181 197 245 253 263 281 272 251 261 268 262 267 268 269 277 273 265 261 262 260 266 266 237 204 214 245 251 252 254 256 254 262 287 283 277 279